�������l�o���
Date,Time,MP-1(��Sv/h),MP-2(��Sv/h),MP-3(��Sv/h),MP-4(��Sv/h),MP-5(��Sv/h),MP-6(��Sv/h),MP-7(��Sv/h),MP-8(��Sv/h),����,����(m/s),���J
2020/12/02,00:00,0.675,0.977,0.614,1.219,0.864,0.383,0.678,0.636,��,9.3,��
2020/12/02,00:10,0.674,0.975,0.614,1.216,0.864,0.383,0.678,0.636,��,10.0,��
2020/12/02,00:20,0.674,0.977,0.614,1.217,0.865,0.383,0.677,0.638,��,9.6,��
2020/12/02,00:30,0.674,0.978,0.614,1.216,0.863,0.381,0.679,0.637,��,8.3,��
2020/12/02,00:40,0.675,0.978,0.613,1.217,0.862,0.384,0.678,0.638,��,8.6,��
2020/12/02,00:50,0.677,0.978,0.614,1.217,0.866,0.383,0.678,0.636,��,8.3,��
2020/12/02,01:00,0.675,0.976,0.613,1.216,0.864,0.382,0.679,0.637,���k��,9.0,��
2020/12/02,01:10,0.675,0.978,0.616,1.218,0.864,0.382,0.678,0.637,���k��,9.0,��
2020/12/02,01:20,0.675,0.977,0.613,1.218,0.864,0.384,0.680,0.635,���k��,9.1,��
2020/12/02,01:30,0.674,0.978,0.613,1.215,0.863,0.384,0.679,0.637,���k��,7.3,��
2020/12/02,01:40,0.675,0.978,0.615,1.217,0.864,0.383,0.679,0.638,���k��,5.3,��
2020/12/02,01:50,0.674,0.975,0.614,1.216,0.865,0.382,0.679,0.636,���k��,4.1,��
2020/12/02,02:00,0.676,0.978,0.614,1.217,0.865,0.382,0.678,0.637,���k��,4.7,��
2020/12/02,02:10,0.675,0.977,0.615,1.219,0.866,0.383,0.679,0.638,���k��,6.9,��
2020/12/02,02:20,0.676,0.978,0.613,1.217,0.862,0.383,0.677,0.638,���k��,7.0,��
2020/12/02,02:30,0.676,0.977,0.614,1.216,0.865,0.383,0.681,0.639,���k��,5.6,��
2020/12/02,02:40,0.676,0.977,0.615,1.218,0.863,0.383,0.678,0.638,�k��,4.4,��
2020/12/02,02:50,0.675,0.977,0.614,1.219,0.863,0.383,0.679,0.638,�k��,5.0,��
2020/12/02,03:00,0.676,0.978,0.615,1.218,0.866,0.383,0.678,0.637,�k��,6.0,��
2020/12/02,03:10,0.676,0.978,0.613,1.219,0.863,0.383,0.678,0.637,�k��,3.8,��
2020/12/02,03:20,0.673,0.975,0.615,1.217,0.863,0.383,0.678,0.639,�k��,3.9,��
2020/12/02,03:30,0.674,0.976,0.615,1.216,0.864,0.383,0.679,0.638,�k��,5.4,��
2020/12/02,03:40,0.677,0.976,0.614,1.218,0.863,0.382,0.677,0.640,�k��,5.2,��
2020/12/02,03:50,0.675,0.979,0.614,1.217,0.862,0.382,0.678,0.636,�k��,5.5,��
2020/12/02,04:00,0.673,0.975,0.617,1.217,0.865,0.383,0.679,0.638,�k��,4.7,��
2020/12/02,04:10,0.676,0.978,0.615,1.218,0.863,0.383,0.678,0.638,�k��,6.5,��
2020/12/02,04:20,0.676,0.977,0.615,1.216,0.863,0.383,0.677,0.638,���k��,5.4,��
2020/12/02,04:30,0.674,0.976,0.614,1.219,0.863,0.383,0.677,0.637,���k��,5.3,��
2020/12/02,04:40,0.674,0.976,0.613,1.218,0.864,0.383,0.678,0.638,���k��,5.5,��
2020/12/02,04:50,0.675,0.976,0.615,1.218,0.864,0.384,0.678,0.638,�k��,5.0,��
2020/12/02,05:00,0.676,0.977,0.613,1.216,0.864,0.384,0.679,0.638,�k��,6.9,��
2020/12/02,05:10,0.674,0.977,0.616,1.216,0.862,0.382,0.678,0.638,�k��,6.6,��
2020/12/02,05:20,0.675,0.976,0.613,1.219,0.864,0.382,0.678,0.639,�k��,6.6,��
2020/12/02,05:30,0.676,0.976,0.614,1.217,0.864,0.380,0.678,0.638,���k��,5.6,��
2020/12/02,05:40,0.675,0.978,0.614,1.216,0.865,0.382,0.678,0.637,���k��,7.1,��
2020/12/02,05:50,0.675,0.978,0.613,1.218,0.865,0.383,0.678,0.637,���k��,8.3,��
2020/12/02,06:00,0.674,0.974,0.614,1.217,0.862,0.382,0.678,0.637,���k��,10.6,��
2020/12/02,06:10,0.674,0.975,0.614,1.216,0.864,0.382,0.678,0.637,���k��,11.3,��
2020/12/02,06:20,0.675,0.975,0.614,1.217,0.861,0.383,0.679,0.638,���k��,10.2,��
2020/12/02,06:30,0.675,0.975,0.613,1.214,0.863,0.382,0.678,0.638,���k��,10.3,��
2020/12/02,06:40,0.674,0.977,0.615,1.217,0.861,0.381,0.679,0.637,�k��,9.2,��
2020/12/02,06:50,0.674,0.975,0.614,1.216,0.863,0.382,0.678,0.638,���k��,10.0,��
2020/12/02,07:00,0.676,0.974,0.615,1.215,0.865,0.381,0.679,0.637,�k��,8.9,��
2020/12/02,07:10,0.673,0.975,0.614,1.213,0.864,0.384,0.678,0.637,�k��,8.6,��
2020/12/02,07:20,0.675,0.977,0.614,1.217,0.863,0.383,0.681,0.639,�k��,8.3,��
2020/12/02,07:30,0.675,0.975,0.616,1.216,0.864,0.382,0.677,0.638,���k��,7.7,��
2020/12/02,07:40,0.676,0.976,0.613,1.218,0.863,0.384,0.679,0.636,�k��,8.6,��
2020/12/02,07:50,0.674,0.974,0.614,1.216,0.863,0.383,0.678,0.638,�k��,8.1,��
2020/12/02,08:00,0.676,0.971,0.615,1.217,0.864,0.382,0.678,0.637,�k��,8.5,��
2020/12/02,08:10,0.674,0.975,0.615,1.217,0.864,0.382,0.678,0.637,�k��,6.8,��
2020/12/02,08:20,0.674,0.974,0.614,1.215,0.863,0.383,0.679,0.637,�k��,6.7,��
2020/12/02,08:30,0.675,0.972,0.616,1.218,0.862,0.382,0.679,0.638,�k��,6.3,��
2020/12/02,08:40,0.674,0.974,0.612,1.217,0.862,0.383,0.679,0.640,�k��,6.3,��
2020/12/02,08:50,0.675,0.973,0.611,1.212,0.863,0.383,0.679,0.637,�k��,6.1,��
2020/12/02,09:00,0.675,0.976,0.615,1.216,0.864,0.381,0.679,0.639,�k��,5.6,��
2020/12/02,09:10,0.676,0.974,0.613,1.217,0.863,0.379,0.678,0.639,�k�k��,6.9,��
2020/12/02,09:20,0.676,0.973,0.616,1.215,0.863,0.384,0.679,0.638,�k��,7.7,��
2020/12/02,09:30,0.677,0.975,0.615,1.215,0.863,0.383,0.678,0.639,�k�k��,6.7,��
2020/12/02,09:40,0.677,0.976,0.613,1.217,0.865,0.383,0.677,0.639,�k�k��,5.4,��
2020/12/02,09:50,0.677,0.974,0.615,1.217,0.863,0.383,0.677,0.638,�k��,3.4,��
2020/12/02,10:00,0.677,0.972,0.613,1.218,0.865,0.384,0.677,0.639,�k��,3.4,��
2020/12/02,10:10,0.676,0.974,0.615,1.217,0.863,0.384,0.677,0.639,���k��,3.0,��
2020/12/02,10:20,0.676,0.975,0.615,1.216,0.867,0.382,0.679,0.639,�k��,5.3,��
2020/12/02,10:30,0.677,0.974,0.616,1.216,0.865,0.383,0.676,0.639,�k��,4.2,��
2020/12/02,10:40,0.677,0.973,0.616,1.218,0.867,0.383,0.678,0.638,�k��,4.9,��
2020/12/02,10:50,0.677,0.971,0.615,1.218,0.863,0.383,0.677,0.638,���k��,3.7,��
2020/12/02,11:00,0.677,0.975,0.615,1.215,0.865,0.383,0.679,0.637,�k��,5.2,��
2020/12/02,11:10,0.680,0.974,0.615,1.217,0.865,0.384,0.680,0.638,�k��,3.7,��
2020/12/02,11:20,0.677,0.976,0.617,1.217,0.861,0.385,0.677,0.638,�k��,2.9,��
2020/12/02,11:30,0.678,0.974,0.615,1.218,0.857,0.384,0.676,0.639,�k��,2.9,��
2020/12/02,11:40,0.680,0.973,0.618,1.219,0.865,0.384,0.676,0.640,�k��,3.6,��
2020/12/02,11:50,0.679,0.974,0.617,1.218,0.866,0.382,0.674,0.638,�k��,0.9,��
2020/12/02,12:00,0.678,0.974,0.615,1.220,0.869,0.385,0.677,0.638,���k��,3.9,��
2020/12/02,12:10,0.679,0.975,0.616,1.219,0.864,0.385,0.677,0.640,���k��,4.8,��
2020/12/02,12:20,0.679,0.979,0.617,1.219,0.867,0.382,0.677,0.640,�k��,3.7,��
2020/12/02,12:30,0.680,0.975,0.616,1.220,0.867,0.383,0.679,0.638,�k��,4.1,��
2020/12/02,12:40,0.679,0.976,0.617,1.222,0.868,0.384,0.677,0.639,�k��,4.9,��
2020/12/02,12:50,0.679,0.978,0.616,1.219,0.868,0.385,0.678,0.637,���k��,3.8,��
2020/12/02,13:00,0.677,0.974,0.615,1.220,0.867,0.385,0.679,0.637,���k��,2.9,��
2020/12/02,13:10,0.678,0.978,0.617,1.218,0.867,0.383,0.679,0.637,���k��,3.5,��
2020/12/02,13:20,0.678,0.975,0.616,1.221,0.862,0.384,0.678,0.635,��,3.6,��
2020/12/02,13:30,0.678,0.975,0.615,1.219,0.863,0.384,0.679,0.635,��,3.4,��
2020/12/02,13:40,0.680,0.973,0.616,1.218,0.860,0.386,0.676,0.635,�k��,3.2,��
2020/12/02,13:50,0.678,0.972,0.616,1.218,0.857,0.383,0.679,0.636,���k��,3.4,��
2020/12/02,14:00,0.677,0.971,0.616,1.220,0.857,0.382,0.679,0.635,�k��,2.0,��
2020/12/02,14:10,0.679,0.974,0.616,1.218,0.859,0.384,0.679,0.636,���k��,2.3,��
2020/12/02,14:20,0.680,0.974,0.616,1.221,0.864,0.385,0.680,0.637,��,2.0,��
2020/12/02,14:30,0.677,0.973,0.615,1.218,0.866,0.384,0.681,0.635,���쓌,2.8,��
2020/12/02,14:40,0.679,0.975,0.616,1.219,0.867,0.383,0.679,0.637,��,2.3,��
2020/12/02,14:50,0.678,0.978,0.616,1.219,0.867,0.384,0.678,0.638,��,1.5,��
2020/12/02,15:00,0.678,0.980,0.616,1.216,0.866,0.385,0.679,0.639,���k��,1.9,��
2020/12/02,15:10,0.680,0.978,0.617,1.218,0.867,0.384,0.679,0.639,���k��,2.0,��
2020/12/02,15:20,0.679,0.978,0.616,1.218,0.868,0.385,0.680,0.639,��,2.0,��
2020/12/02,15:30,0.678,0.981,0.617,1.220,0.866,0.384,0.680,0.637,��,2.6,��
2020/12/02,15:40,0.676,0.979,0.616,1.219,0.867,0.382,0.681,0.637,�쓌,1.4,��
2020/12/02,15:50,0.676,0.980,0.615,1.220,0.865,0.384,0.681,0.638,���k��,1.9,��
2020/12/02,16:00,0.678,0.979,0.615,1.219,0.867,0.383,0.679,0.640,��,1.7,��
2020/12/02,16:10,0.678,0.980,0.617,1.217,0.867,0.384,0.680,0.637,���k��,1.7,��
2020/12/02,16:20,0.679,0.977,0.615,1.218,0.867,0.385,0.681,0.637,���k��,2.0,��
2020/12/02,16:30,0.677,0.979,0.614,1.219,0.867,0.386,0.677,0.638,�k��,1.2,��
2020/12/02,16:40,0.678,0.978,0.616,1.217,0.866,0.383,0.680,0.638,���k��,1.7,��
2020/12/02,16:50,0.678,0.978,0.617,1.218,0.866,0.386,0.681,0.639,���k��,0.9,��
2020/12/02,17:00,0.676,0.980,0.616,1.218,0.866,0.384,0.679,0.639,�쓌,0.9,��
2020/12/02,17:10,0.677,0.979,0.615,1.220,0.866,0.384,0.680,0.639,�k�k��,1.1,��
2020/12/02,17:20,0.677,0.979,0.614,1.219,0.867,0.385,0.679,0.640,�k��,0.8,��
2020/12/02,17:30,0.677,0.980,0.617,1.218,0.866,0.383,0.678,0.637,�k��,0.6,��
2020/12/02,17:40,0.678,0.979,0.617,1.218,0.867,0.383,0.679,0.639,�k�k��,0.9,��
2020/12/02,17:50,0.676,0.979,0.616,1.222,0.867,0.384,0.680,0.637,�k�k��,1.7,��
2020/12/02,18:00,0.678,0.979,0.615,1.216,0.868,0.384,0.679,0.639,�k��,1.9,��
2020/12/02,18:10,0.678,0.979,0.616,1.219,0.867,0.383,0.678,0.639,�k��,1.7,��
2020/12/02,18:20,0.678,0.980,0.615,1.219,0.867,0.384,0.679,0.639,��,1.7,��
2020/12/02,18:30,0.677,0.981,0.614,1.219,0.865,0.384,0.678,0.639,��,1.9,��
2020/12/02,18:40,0.677,0.979,0.617,1.219,0.868,0.383,0.678,0.638,��,2.0,��
2020/12/02,18:50,0.679,0.978,0.617,1.219,0.866,0.386,0.679,0.638,���쐼,1.5,��
2020/12/02,19:00,0.678,0.977,0.616,1.219,0.867,0.384,0.679,0.640,���k��,0.9,��
2020/12/02,19:10,0.680,0.979,0.616,1.219,0.867,0.385,0.681,0.638,�k��,1.4,��
2020/12/02,19:20,0.678,0.980,0.618,1.220,0.866,0.384,0.680,0.639,���k��,1.5,��
2020/12/02,19:30,0.678,0.980,0.617,1.219,0.866,0.384,0.678,0.637,��,1.5,��
2020/12/02,19:40,0.679,0.980,0.616,1.217,0.867,0.384,0.679,0.637,��,1.5,��
2020/12/02,19:50,0.678,0.982,0.616,1.219,0.867,0.383,0.680,0.639,��,0.9,��
2020/12/02,20:00,0.679,0.981,0.617,1.218,0.868,0.384,0.678,0.638,���k��,1.2,�L
2020/12/02,20:10,0.678,0.981,0.617,1.218,0.868,0.384,0.679,0.638,���k��,1.7,�L
2020/12/02,20:20,0.677,0.980,0.617,1.219,0.867,0.384,0.679,0.637,���k��,2.2,�L
2020/12/02,20:30,0.680,0.979,0.617,1.220,0.868,0.384,0.678,0.637,���k��,1.2,�L
2020/12/02,20:40,0.680,0.979,0.618,1.219,0.868,0.386,0.680,0.638,��,0.8,�L
2020/12/02,20:50,0.679,0.979,0.618,1.222,0.867,0.387,0.681,0.639,�k��,2.6,�L
2020/12/02,21:00,0.679,0.982,0.620,1.217,0.867,0.387,0.680,0.639,�k�k��,1.9,�L
2020/12/02,21:10,0.678,0.977,0.617,1.219,0.865,0.387,0.682,0.638,�k�k��,1.5,�L
2020/12/02,21:20,0.680,0.976,0.617,1.218,0.862,0.386,0.680,0.638,�k��,1.2,�L
2020/12/02,21:30,0.677,0.973,0.616,1.219,0.860,0.388,0.680,0.638,���k��,0.8,�L
2020/12/02,21:40,0.677,0.973,0.617,1.219,0.862,0.386,0.677,0.638,-,CALM,�L
2020/12/02,21:50,0.676,0.971,0.616,1.216,0.860,0.386,0.680,0.638,�쐼,0.6,�L
2020/12/02,22:00,0.678,0.973,0.614,1.216,0.860,0.386,0.679,0.638,�쐼,0.6,�L
2020/12/02,22:10,0.673,0.970,0.615,1.213,0.860,0.387,0.677,0.636,��쐼,2.0,�L
2020/12/02,22:20,0.674,0.972,0.615,1.216,0.859,0.386,0.678,0.639,�쐼,1.2,�L
2020/12/02,22:30,0.675,0.971,0.613,1.216,0.858,0.386,0.679,0.638,�쐼,2.0,�L
2020/12/02,22:40,0.674,0.971,0.614,1.216,0.858,0.386,0.677,0.637,��쐼,2.6,�L
2020/12/02,22:50,0.675,0.971,0.613,1.212,0.860,0.386,0.678,0.636,��쐼,2.6,�L
2020/12/02,23:00,0.675,0.968,0.613,1.218,0.858,0.387,0.677,0.637,��쐼,2.3,�L
2020/12/02,23:10,0.674,0.970,0.613,1.213,0.857,0.387,0.676,0.636,�쐼,2.5,�L
2020/12/02,23:20,0.672,0.967,0.615,1.215,0.857,0.384,0.677,0.637,��쐼,2.6,�L
2020/12/02,23:30,0.673,0.970,0.612,1.213,0.856,0.384,0.676,0.636,�쐼,2.2,�L
2020/12/02,23:40,0.672,0.968,0.611,1.211,0.857,0.384,0.676,0.637,�쐼,2.6,��
2020/12/02,23:50,0.672,0.967,0.611,1.211,0.857,0.384,0.676,0.636,�쐼,2.0,�L
